| time (UTC) | temp F | wind direction | speed MPH | gust MPH | rain 1hr in | rain 24hr in | rain mn in | humidity % | barometer mb |
| 20260504035029 | 67 | 172 | 6.0 | 7.0 | 0.00 | 0.00 | 0.00 | 58 | 1018.1 |
| 20260504034016 | 67 | 173 | 6.0 | 8.0 | 0.00 | 0.00 | 0.00 | 57 | 1018.0 |
| 20260504033020 | 68 | 174 | 6.0 | 10.0 | 0.00 | 0.00 | 0.00 | 57 | 1018.1 |
| 20260504032018 | 68 | 179 | 6.0 | 8.0 | 0.00 | 0.00 | 0.00 | 55 | 1018.1 |
| 20260504031017 | 68 | 162 | 6.0 | 10.0 | 0.00 | 0.00 | 0.00 | 55 | 1018.0 |
| 20260504030033 | 69 | 175 | 7.0 | 10.0 | 0.00 | 0.00 | 0.00 | 54 | 1017.9 |
| 20260504025018 | 69 | 169 | 6.0 | 8.0 | 0.00 | 0.00 | 0.00 | 55 | 1017.8 |
| 20260504023047 | 69 | 166 | 7.0 | 11.0 | 0.00 | 0.00 | 0.00 | 54 | 1017.8 |
| 20260504022031 | 70 | 162 | 5.0 | 7.0 | 0.00 | 0.00 | 0.00 | 54 | 1017.8 |
| 20260504021037 | 70 | 168 | 6.0 | 9.0 | 0.00 | 0.00 | 0.00 | 53 | 1017.8 |
| 20260504020020 | 70 | 165 | 5.0 | 7.0 | 0.00 | 0.00 | 0.00 | 52 | 1017.8 |
| 20260504015024 | 71 | 164 | 6.0 | 9.0 | 0.00 | 0.00 | 0.00 | 51 | 1017.6 |
| 20260504014028 | 71 | 164 | 5.0 | 7.0 | 0.00 | 0.00 | 0.00 | 49 | 1017.5 |
| 20260504013032 | 72 | 167 | 4.0 | 6.0 | 0.00 | 0.00 | 0.00 | 46 | 1017.4 |
| 20260504012018 | 73 | 164 | 6.0 | 9.0 | 0.00 | 0.00 | 0.00 | 43 | 1017.4 |
| 20260504011022 | 74 | 168 | 8.0 | 11.0 | 0.00 | 0.00 | 0.00 | 42 | 1017.5 |
| 20260504010025 | 74 | 176 | 8.0 | 11.0 | 0.00 | 0.00 | 0.00 | 42 | 1017.5 |
| 20260504005030 | 74 | 157 | 7.0 | 9.0 | 0.00 | 0.00 | 0.00 | 42 | 1017.3 |
| 20260504004016 | 75 | 171 | 7.0 | 13.0 | 0.00 | 0.00 | 0.00 | 40 | 1017.3 |
| 20260504003040 | 76 | 170 | 8.0 | 11.0 | 0.00 | 0.00 | 0.00 | 39 | 1017.5 |
| 20260504002024 | 76 | 166 | 9.0 | 15.0 | 0.00 | 0.00 | 0.00 | 39 | 1017.6 |
| 20260504001028 | 77 | 166 | 8.0 | 10.0 | 0.00 | 0.00 | 0.00 | 39 | 1017.6 |
| 20260504000037 | 77 | 177 | 10.0 | 15.0 | 0.00 | 0.00 | 0.00 | 38 | 1017.6 |
| 20260503235023 | 78 | 174 | 9.0 | 13.0 | 0.00 | 0.00 | 0.00 | 37 | 1017.7 |
| 20260503234026 | 78 | 167 | 8.0 | 12.0 | 0.00 | 0.00 | 0.00 | 37 | 1017.9 |
| 20260503233026 | 79 | 160 | 10.0 | 12.0 | 0.00 | 0.00 | 0.00 | 36 | 1017.9 |
| 20260503232050 | 79 | 158 | 9.0 | 12.0 | 0.00 | 0.00 | 0.00 | 37 | 1017.9 |
| 20260503231036 | 79 | 167 | 9.0 | 12.0 | 0.00 | 0.00 | 0.00 | 37 | 1018.0 |
| 20260503230100 | 79 | 160 | 8.0 | 10.0 | 0.00 | 0.00 | 0.00 | 38 | 1018.1 |
| 20260503225044 | 79 | 179 | 7.0 | 12.0 | 0.00 | 0.00 | 0.00 | 39 | 1018.0 |
| 20260503224042 | 80 | 189 | 8.0 | 11.0 | 0.00 | 0.00 | 0.00 | 37 | 1018.0 |
| 20260503223020 | 79 | 164 | 7.0 | 9.0 | 0.00 | 0.00 | 0.00 | 36 | 1018.1 |
| 20260503222018 | 80 | 193 | 9.0 | 12.0 | 0.00 | 0.00 | 0.00 | 35 | 1018.2 |
| 20260503221016 | 80 | 184 | 9.0 | 13.0 | 0.00 | 0.00 | 0.00 | 35 | 1018.4 |
| 20260503220026 | 79 | 168 | 9.0 | 11.0 | 0.00 | 0.00 | 0.00 | 35 | 1018.5 |
| 20260503215031 | 80 | 179 | 10.0 | 14.0 | 0.00 | 0.00 | 0.00 | 36 | 1018.7 |
| 20260503214016 | 80 | 169 | 9.0 | 13.0 | 0.00 | 0.00 | 0.00 | 37 | 1018.8 |
| 20260503213100 | 80 | 187 | 10.0 | 14.0 | 0.00 | 0.00 | 0.00 | 37 | 1019.0 |
| 20260503212024 | 80 | 153 | 8.0 | 11.0 | 0.00 | 0.00 | 0.00 | 37 | 1019.1 |
| 20260503211048 | 81 | 168 | 7.0 | 12.0 | 0.00 | 0.00 | 0.00 | 38 | 1019.3 |
| 20260503210031 | 81 | 175 | 11.0 | 15.0 | 0.00 | 0.00 | 0.00 | 37 | 1019.4 |
| 20260503205017 | 81 | 215 | 8.0 | 12.0 | 0.00 | 0.00 | 0.00 | 36 | 1019.7 |
| 20260503204022 | 81 | 195 | 10.0 | 15.0 | 0.00 | 0.00 | 0.00 | 36 | 1019.9 |
| 20260503203030 | 80 | 170 | 8.0 | 13.0 | 0.00 | 0.00 | 0.00 | 36 | 1020.0 |
| 20260503202049 | 81 | 216 | 9.0 | 12.0 | 0.00 | 0.00 | 0.00 | 36 | 1020.2 |
| 20260503201015 | 81 | 168 | 8.0 | 13.0 | 0.00 | 0.00 | 0.00 | 35 | 1020.3 |
| 20260503200020 | 81 | 196 | 7.0 | 10.0 | 0.00 | 0.00 | 0.00 | 39 | 1020.4 |
| 20260503195044 | 81 | 215 | 6.0 | 9.0 | 0.00 | 0.00 | 0.00 | 34 | 1020.7 |
| 20260503194021 | 81 | 188 | 8.0 | 12.0 | 0.00 | 0.00 | 0.00 | 38 | 1020.9 |
| 20260503193039 | 81 | 221 | 8.0 | 11.0 | 0.00 | 0.00 | 0.00 | 35 | 1021.0 |
| 20260503192016 | 80 | 180 | 9.0 | 11.0 | 0.00 | 0.00 | 0.00 | 37 | 1021.2 |
| 20260503191026 | 80 | 194 | 7.0 | 10.0 | 0.00 | 0.00 | 0.00 | 40 | 1021.4 |
| 20260503190030 | 81 | 209 | 8.0 | 13.0 | 0.00 | 0.00 | 0.00 | 38 | 1021.4 |
| 20260503185016 | 80 | 185 | 8.0 | 11.0 | 0.00 | 0.00 | 0.00 | 38 | 1021.5 |
| 20260503184020 | 80 | 171 | 7.0 | 11.0 | 0.00 | 0.00 | 0.00 | 39 | 1021.7 |
| 20260503183104 | 79 | 186 | 8.0 | 12.0 | 0.00 | 0.00 | 0.00 | 40 | 1021.9 |
| 20260503182109 | 79 | 184 | 8.0 | 11.0 | 0.00 | 0.00 | 0.00 | 43 | 1022.0 |
| 20260503181032 | 79 | 191 | 7.0 | 10.0 | 0.00 | 0.00 | 0.00 | 43 | 1022.2 |
| 20260503180018 | 79 | 172 | 6.0 | 8.0 | 0.00 | 0.00 | 0.00 | 46 | 1022.4 |
| 20260503175022 | 79 | 177 | 6.0 | 9.0 | 0.00 | 0.00 | 0.00 | 47 | 1022.6 |
| 20260503174026 | 79 | 222 | 8.0 | 12.0 | 0.00 | 0.00 | 0.00 | 44 | 1022.8 |
| 20260503173029 | 79 | 218 | 6.0 | 10.0 | 0.00 | 0.00 | 0.00 | 46 | 1022.9 |
| 20260503172016 | 78 | 181 | 9.0 | 10.0 | 0.00 | 0.00 | 0.00 | 45 | 1023.1 |
| 20260503171020 | 78 | 198 | 6.0 | 10.0 | 0.00 | 0.00 | 0.00 | 48 | 1023.2 |
| 20260503131045 | 60 | 195 | 3.0 | 5.0 | 0.00 | 0.00 | 0.00 | 78 | 1023.4 |
| 20260503081018 | 56 | 163 | 2.0 | 3.0 | 0.00 | 0.00 | 0.00 | 78 | 1021.9 |
| 20260503072020 | 58 | 190 | 2.0 | 3.0 | 0.00 | 0.00 | 0.00 | 72 | 1022.4 |
| 20260503071024 | 58 | 193 | 2.0 | 3.0 | 0.00 | 0.00 | 0.00 | 71 | 1022.4 |
| 20260503055024 | 60 | 186 | 4.0 | 6.0 | 0.00 | 0.00 | 0.00 | 70 | 1022.2 |
| 20260503054043 | 60 | 185 | 4.0 | 5.0 | 0.00 | 0.00 | 0.00 | 70 | 1022.2 |
| 20260503053027 | 60 | 192 | 3.0 | 4.0 | 0.00 | 0.00 | 0.00 | 71 | 1022.1 |
| 20260503052025 | 60 | 180 | 3.0 | 4.0 | 0.00 | 0.00 | 0.00 | 71 | 1022.1 |
| 20260503051017 | 60 | 177 | 3.0 | 3.0 | 0.00 | 0.00 | 0.00 | 72 | 1022.1 |
| 20260503050026 | 61 | 167 | 3.0 | 4.0 | 0.00 | 0.00 | 0.00 | 70 | 1021.9 |
| 20260503045038 | 61 | 171 | 3.0 | 4.0 | 0.00 | 0.00 | 0.00 | 69 | 1021.9 |
| 20260503044017 | 61 | 163 | 3.0 | 4.0 | 0.00 | 0.00 | 0.00 | 67 | 1022.1 |
| 20260503043014 | 62 | 163 | 2.0 | 3.0 | 0.00 | 0.00 | 0.00 | 65 | 1022.0 |
| 20260503042018 | 62 | 164 | 2.0 | 3.0 | 0.00 | 0.00 | 0.00 | 64 | 1021.9 |
| 20260503041022 | 62 | 178 | 2.0 | 3.0 | 0.00 | 0.00 | 0.00 | 63 | 1021.9 |
| 20260503040026 | 63 | 190 | 3.0 | 4.0 | 0.00 | 0.00 | 0.00 | 61 | 1021.9 |